Location: Mesa
(33.4220°N, 111.8220°W)
Time: 22:16:35
(UTC-07:00)

N. Korean satellite - Pass Details

Date: 25 November 2019
Orbit: 455 x 506 km, 97.2° (Epoch: 10 December)

Event Time Altitude Azimuth Distance (km) Brightness Sun altitude
Rises 06:02:30 0° 15° (NNE) 2,585 10.3 -13.6°
Reaches altitude 10° 06:04:38 10° 19° (NNE) 1,690 9.3 -13.2°
Maximum altitude 06:08:13 59° 100° (E) 566 7.2 -12.4°
Drops below altitude 10° 06:11:44 10° 181° (S) 1,650 9.5 -11.8°
Sets 06:13:47 0° 185° (S) 2,515 10.4 -11.3°
